Theta_e
315 315 314 314 314 316 317 317 317 316 317 317 317 317 317 316 315 315 313 310 308 309 309 308 307 307 307 307 307 308 311 317 320 321 323 324 326 326 324 324 323 326 325
313 314 313 314 315 318 318 318 317 316 318 317 317 317 317 317 316 316 315 313 312 310 308 308 308 307 306 306 307 307 307 307 312 319 321 323 323 321 322 325 323 324 326
318 316 316 316 316 315 315 314 313 315 317 316 317 317 317 316 316 316 316 314 312 311 311 309 308 308 307 306 306 306 306 306 307 312 321 321 324 320 323 326 324 323 324
318 317 317 312 312 312 313 314 314 316 316 318 318 318 317 315 316 315 315 314 312 311 311 311 310 309 308 306 306 306 307 306 306 306 311 320 322 325 322 323 326 324 324
316 317 315 311 311 311 312 314 314 315 315 315 314 310 309 312 314 314 314 315 314 313 311 311 311 310 309 308 307 305 306 306 306 305 305 310 319 322 323 325 323 325 325
315 315 315 312 312 310 309 310 311 311 310 307 309 311 311 309 312 310 310 312 314 315 314 313 311 311 309 308 308 305 305 306 306 305 305 305 306 316 320 322 324 325 325
314 314 313 311 309 308 308 308 307 306 305 307 306 304 304 304 305 304 305 308 310 311 313 313 312 311 310 309 309 308 307 306 305 304 304 304 305 305 307 317 319 320 323
313 313 311 309 307 307 306 306 305 304 300 302 304 306 307 306 305 306 307 309 309 309 309 311 312 312 311 309 309 308 308 308 304 304 303 303 303 304 304 305 314 319 321
308 308 307 306 306 305 305 304 303 302 302 303 304 304 304 304 304 303 303 305 306 307 308 309 310 311 310 310 310 309 308 308 307 303 302 302 301 302 303 303 305 308 315
308 307 306 305 303 302 303 303 301 301 304 304 303 303 304 304 301 300 300 299 299 299 301 306 303 308 311 310 310 309 309 309 306 304 302 302 302 301 301 302 302 303 305
307 306 305 303 300 300 300 301 301 302 302 303 303 302 302 300 300 299 297 297 296 296 297 297 298 299 303 308 308 308 308 306 303 304 303 302 303 302 300 300 301 302 303
306 303 301 300 300 300 301 301 301 301 301 300 299 298 298 297 297 297 296 296 295 295 295 295 296 297 298 303 306 303 304 303 303 303 304 303 302 302 301 300 300 300 300
301 301 300 300 300 299 300 299 299 298 298 299 298 298 297 296 296 295 295 295 294 294 294 294 294 296 298 298 302 303 302 302 302 300 302 302 302 301 300 299 299 305 306
300 300 300 299 297 297 297 297 297 297 297 297 297 296 296 296 295 295 294 294 294 294 294 293 293 293 294 296 298 301 300 301 301 301 300 301 300 300 299 298 298 299 299
300 299 296 293 294 293 292 292 293 292 293 294 294 293 294 294 294 295 295 295 295 294 294 293 292 292 293 294 295 296 299 299 299 299 298 299 300 300 298 299 299 298 298
299 294 292 293 293 292 292 292 291 291 290 291 291 291 291 292 292 292 292 292 293 293 293 293 292 292 293 292 293 294 295 297 298 298 297 297 298 297 296 298 299 298 299
295 293 293 292 292 291 290 290 289 289 290 290 290 291 290 289 290 290 290 290 290 290 291 291 291 291 291 291 291 292 292 294 295 297 296 296 296 296 296 296 296 297 297
294 293 293 291 290 290 289 289 289 289 289 289 289 289 288 287 286 288 289 289 289 289 289 289 290 290 290 290 290 291 291 292 292 295 295 295 295 295 295 294 293 293 294
294 292 291 290 289 289 289 289 289 289 288 288 288 287 287 286 285 285 286 287 288 289 289 289 289 289 289 289 289 289 290 290 291 292 293 294 294 294 294 294 294 293 293
292 291 290 290 289 289 289 289 288 289 288 287 287 286 286 285 285 284 284 286 286 287 288 288 287 287 286 287 287 288 288 290 290 290 291 291 292 292 293 293 293 292 292
291 290 290 289 289 289 288 288 288 288 287 286 285 284 283 282 283 284 285 286 286 287 287 286 286 285 285 284 285 287 288 288 291 291 291 291 292 292 292 292 292 292 292
291 290 289 289 289 289 288 288 288 287 285 284 283 282 281 280 282 283 283 284 285 285 286 285 285 285 284 284 284 284 285 286 287 288 289 290 291 291 291 291 291 292 293
291 289 289 289 289 289 288 287 285 284 284 283 282 281 280 280 280 281 282 282 283 284 284 285 285 285 284 284 283 283 284 284 284 285 286 288 289 289 289 289 289 290 290
290 290 289 289 288 288 286 284 284 283 283 282 281 280 280 280 280 280 281 281 282 282 282 282 282 283 282 283 283 283 284 284 284 285 285 285 286 287 287 287 288 288 288
290 289 289 288 288 286 284 284 283 282 281 281 280 279 279 279 280 281 281 282 282 282 282 282 282 283 283 283 284 284 284 284 284 284 285 285 285 286 286 286 287 287 287
289 288 288 288 286 284 283 283 282 281 280 279 279 279 279 280 281 280 280 281 281 281 281 282 282 282 282 282 283 282 283 284 285 284 284 284 284 284 285 286 286 286 286
Wind_Speed
4 4 8 10 11 8 11 14 17 20 19 21 24 25 27 26 25 23 20 18 18 19 19 17 18 18 18 18 19 19 20 20 21 20 23 24 26 25 26 25 25 25 26
6 8 9 11 12 12 14 19 22 21 21 23 26 26 28 28 28 28 27 25 21 21 22 20 19 20 21 22 23 23 24 25 23 22 20 25 26 31 32 29 26 28 26
8 11 11 13 14 16 18 23 26 24 24 23 25 27 27 28 30 33 32 29 28 25 23 24 23 23 24 24 22 24 24 25 25 25 23 23 27 34 35 30 29 31 29
5 8 8 13 15 16 21 25 25 24 24 24 24 23 25 27 28 29 32 32 30 30 28 26 26 26 26 24 24 24 23 24 24 25 26 25 24 28 36 35 28 31 33
7 9 11 18 21 23 25 23 20 23 25 29 31 33 31 27 27 29 29 31 34 36 35 33 31 29 28 27 27 26 23 24 25 24 24 26 27 28 32 34 36 36 36
10 14 20 25 33 27 27 29 29 28 30 30 27 26 27 27 26 30 29 29 27 32 39 43 40 38 34 31 30 30 27 27 27 27 26 25 25 28 30 30 30 34 36
20 31 29 29 28 22 22 24 28 29 27 28 33 36 38 36 35 34 34 30 27 29 29 37 44 44 39 41 35 34 34 33 32 30 27 27 26 26 26 29 29 30 35
24 24 23 23 20 22 27 30 31 30 32 29 30 32 30 36 35 29 26 24 24 28 28 23 26 34 39 39 41 40 36 34 34 31 28 25 25 26 26 26 27 28 29
19 16 16 17 19 24 28 30 32 33 32 32 31 29 23 23 31 32 30 29 28 27 27 25 21 24 33 40 44 40 38 36 37 31 28 23 21 22 26 26 26 27 28
17 15 17 20 25 29 29 31 30 29 26 27 29 27 21 23 20 25 29 37 36 33 32 30 27 21 23 29 38 46 37 41 39 33 27 23 20 19 21 25 24 25 26
15 19 25 31 29 28 27 27 28 27 28 26 24 22 25 29 31 31 34 34 37 31 30 32 33 32 27 23 28 37 42 40 31 31 29 26 22 19 18 21 23 22 22
25 30 26 25 21 22 21 22 25 27 29 29 28 27 26 27 29 24 25 35 29 35 29 26 24 24 22 25 20 18 24 29 23 29 30 27 23 22 19 18 20 21 21
21 23 23 20 21 25 23 22 22 21 20 23 26 24 24 24 23 26 22 24 27 30 27 20 19 16 17 17 22 28 20 17 24 23 25 28 26 22 21 20 19 18 18
19 18 20 25 31 29 27 27 27 25 25 27 25 27 29 31 25 22 21 22 25 19 26 25 21 18 20 19 19 20 22 32 30 27 20 25 23 24 22 21 19 20 21
18 23 30 27 27 25 25 24 27 27 26 23 20 21 22 22 24 21 19 21 24 23 26 27 28 21 17 19 20 20 14 13 17 28 14 18 23 24 21 19 18 19 20
25 30 28 25 27 27 26 24 23 22 23 20 20 20 21 21 23 27 23 20 18 19 28 25 26 21 18 15 15 19 20 9 13 19 15 17 17 17 19 21 20 18 18
28 23 21 21 22 23 23 25 25 24 23 22 19 17 19 19 21 26 29 26 27 26 25 27 23 19 18 22 20 16 18 18 10 9 8 13 14 17 18 20 22 22 20
17 16 19 24 24 23 23 22 22 23 23 20 19 22 25 31 34 28 24 26 25 24 26 29 26 24 19 17 17 14 14 14 13 11 17 19 18 16 17 17 17 19 23
20 20 17 19 22 24 26 26 25 26 24 26 31 34 34 32 32 31 27 26 28 25 23 24 27 26 23 21 23 21 17 20 18 14 12 15 18 18 20 21 22 23 23
19 19 17 19 25 25 27 25 27 29 33 34 36 34 35 36 35 33 30 26 26 28 30 30 29 30 31 30 23 22 22 17 18 21 22 20 17 16 15 16 18 20 22
15 15 19 22 23 23 26 27 29 32 34 39 39 38 38 37 28 21 21 21 21 24 25 24 27 27 28 28 26 24 21 19 16 12 10 12 15 15 15 17 19 20 22
13 17 21 20 19 22 27 30 32 34 39 34 31 37 36 27 21 21 23 24 22 23 22 22 23 24 25 24 24 26 30 27 23 19 19 20 19 20 21 21 18 19 26
13 18 17 18 21 28 25 27 35 33 30 30 33 33 31 24 21 21 24 24 24 20 20 20 20 22 22 21 23 21 21 22 22 27 25 26 23 23 23 23 24 24 25
15 16 16 21 25 24 29 30 28 30 31 30 31 31 27 26 24 24 24 24 24 26 24 22 24 27 26 26 22 21 21 22 23 23 23 29 30 29 28 28 25 24 23
14 15 20 24 27 30 27 29 30 30 27 31 28 33 27 26 21 21 23 21 22 21 19 17 16 20 21 23 24 23 25 26 29 28 23 23 23 25 27 29 30 29 28
16 19 22 24 28 28 28 26 28 28 26 29 34 29 21 17 17 19 18 20 21 20 19 20 21 21 24 26 25 25 26 24 23 28 23 23 28 27 26 22 21 20 20
Wind_Direction
25 11 10 5 358 346 326 315 311 323 322 319 319 321 323 327 328 327 325 314 284 275 282 284 282 278 271 270 269 272 270 264 259 258 241 238 238 233 239 228 226 226 223
346 349 346 345 347 337 322 313 310 319 316 315 314 315 315 314 313 313 309 305 306 299 289 278 278 272 272 270 270 269 269 269 265 259 247 235 237 233 240 238 227 224 226
316 335 332 339 332 323 313 310 315 310 303 307 305 303 303 305 307 305 303 295 294 289 293 283 279 278 272 269 268 271 269 269 267 262 252 238 234 228 241 239 233 228 224
298 296 309 329 331 322 314 312 315 310 307 302 299 297 297 299 300 303 305 301 289 286 286 280 283 285 278 261 261 263 268 270 268 264 260 250 237 233 228 234 233 233 231
277 288 293 333 335 325 312 301 302 299 297 293 294 293 296 298 296 295 298 295 298 293 284 281 278 274 267 267 265 253 257 265 268 266 261 256 247 237 234 240 237 237 230
293 301 291 310 322 313 304 297 291 292 297 304 302 298 297 298 294 293 294 291 299 293 290 286 280 278 266 255 259 255 256 258 261 262 260 256 249 244 243 242 239 235 238
306 304 290 311 313 304 304 301 301 301 300 299 299 297 291 290 290 290 292 297 298 301 301 287 281 273 274 264 259 248 257 264 258 255 256 256 254 249 245 245 244 238 231
299 294 303 301 296 299 300 303 307 309 306 304 301 297 305 298 298 289 282 281 283 287 290 292 294 278 273 255 263 261 250 257 256 253 254 256 254 254 250 244 244 242 239
308 310 297 290 297 302 303 305 307 309 304 300 298 299 303 297 306 299 295 290 286 288 288 294 289 280 271 265 257 252 256 248 251 250 248 248 250 249 252 250 244 241 241
304 292 291 301 307 304 300 303 303 300 298 299 299 298 293 301 318 315 298 301 297 296 292 287 297 296 264 255 250 252 240 251 245 246 244 241 240 242 245 250 249 247 244
291 294 304 308 308 303 303 298 295 293 296 296 297 300 301 302 297 302 312 306 306 304 301 294 296 292 295 285 255 256 237 224 242 245 246 244 239 234 236 244 254 249 246
313 310 312 314 307 303 304 298 295 295 294 298 297 302 304 306 303 306 303 302 310 311 311 310 305 302 296 285 260 231 215 209 227 252 245 241 243 236 234 237 242 250 250
313 311 310 305 305 305 300 298 302 304 301 298 298 299 306 306 301 305 291 289 300 307 314 331 339 323 324 287 274 249 241 232 221 243 245 255 248 240 248 244 236 240 245
306 300 301 307 309 308 306 303 303 302 296 296 302 303 297 292 296 293 290 290 296 293 303 316 330 338 339 325 303 269 256 251 241 228 247 242 251 255 251 246 241 239 238
302 315 321 326 324 324 330 321 319 330 326 315 307 313 306 304 294 282 282 290 277 281 293 307 315 326 331 319 319 318 267 260 239 204 227 244 245 256 252 252 250 245 243
315 324 331 332 333 333 334 332 331 330 330 328 327 319 314 318 312 314 312 311 301 300 297 303 308 316 321 327 329 318 310 292 258 246 233 245 248 255 254 258 258 256 250
312 334 336 331 327 326 326 326 326 325 325 322 318 315 316 318 320 314 312 313 308 307 303 305 303 306 300 299 302 300 312 328 296 230 248 258 267 262 261 263 263 260 258
311 317 317 319 321 322 324 323 319 314 309 305 304 303 304 308 310 299 300 303 300 301 289 287 293 288 287 287 294 291 288 284 315 296 256 266 267 267 264 265 269 266 261
299 307 313 315 316 316 318 316 313 304 302 305 305 307 306 308 305 302 296 299 291 286 288 287 287 289 288 287 285 290 295 281 273 274 272 264 257 257 258 255 256 270 275
307 312 315 319 316 314 312 307 303 299 302 309 310 308 308 306 304 301 291 291 291 288 283 275 285 293 291 288 290 294 288 293 276 258 253 257 251 244 240 247 258 261 270
307 308 317 324 319 311 308 302 301 303 307 311 310 312 312 308 301 297 299 294 284 277 282 284 285 288 291 292 284 276 277 281 263 263 244 233 240 244 246 248 243 246 259
299 317 323 325 314 311 309 306 304 306 311 316 322 319 319 312 304 290 288 288 286 280 276 273 279 284 287 288 290 281 278 284 289 265 270 255 253 256 265 260 253 249 251
309 324 317 316 316 315 310 312 312 316 319 319 320 323 321 319 313 304 295 294 289 286 279 279 277 279 283 284 295 288 283 281 280 273 275 273 263 262 263 268 268 264 261
326 311 316 319 319 312 318 323 321 320 317 319 321 322 319 317 315 310 303 294 291 287 286 283 282 286 286 284 280 278 282 282 277 272 272 274 271 269 266 264 261 262 265
307 318 323 323 324 331 327 322 321 321 319 320 322 325 319 313 314 310 307 300 294 289 286 282 275 271 274 274 274 274 274 277 277 271 265 273 272 272 268 267 262 264 264
323 326 326 327 331 331 326 323 324 320 319 321 324 326 323 322 314 321 311 305 300 297 293 283 273 272 277 274 272 270 269 269 272 276 276 273 268 268 277 269 268 268 265